This demonstration page uses our WeatherBlox Daily Observations layout. Learn more.

Left ArrowRight Arrow

39.01783, -85.05884

Hourly Observations for July 5, 2018

Temp ( °F °C ) Dew Point ( °F °C ) Humidity (%) Winds ( mph kmh ) Pressure ( in mb ) Visibility ( mi km ) Precip ( " mm )
12:52 am 00:52 Mostly Cloudy 83 28.3 71 21.7 67 67 ENE 5 7 30.22 1023 9 14 0.00 0.00
1:52 am 01:52 Partly Cloudy 81 27.2 71 21.7 72 72 NNE 5 7 30.22 1023 7 11 0.00 0.00
2:52 am 02:52 Mostly Cloudy with Haze 80 26.7 73 22.8 79 79 Calm 30.21 1023 5 8 0.00 0.00
3:52 am 03:52 Hazy 78 25.6 72 22.2 82 82 Calm 30.22 1023 5 8 0.00 0.00
4:52 am 04:52 Partly Cloudy with Mist and Fog 74 23.3 71 21.7 91 91 Calm 30.21 1023 5 8 0.00 0.00
5:52 am 05:52 Partly Cloudy with Mist and Fog 75 23.9 71 21.7 88 88 Calm 30.20 1023 5 8 0.00 0.00
6:52 am 06:52 Partly Cloudy with Mist and Fog 77 25 71 21.7 82 82 Calm 30.21 1023 6 10 0.00 0.03
7:52 am 07:52 Partly Cloudy 81 27.2 72 22.2 74 74 Calm 30.22 1023 9 14 0.00 0.03
8:52 am 08:52 Mostly Sunny 84 28.9 74 23.3 72 72 Calm 30.24 1024 10 16 0.00 0.00
9:52 am 09:52 Mostly Sunny 88 31.1 75 23.9 66 66 VRB 3 6 30.25 1024 10 16 0.00 0.00
10:52 am 10:52 Mostly Sunny 90 32.2 74 23.3 59 59 W 5 7 30.25 1024 10 16 0.00 0.00
11:52 am 11:52 Mostly Cloudy 92 33.3 73 22.8 54 54 VRB 3 6 30.23 1024 10 16 0.00 0.00
12:52 pm 12:52 Mostly Cloudy 92 33.3 71 21.7 51 51 Calm 30.22 1023 10 16 0.00 0.00
1:05 pm 13:05 Mostly Cloudy with Nearby Thunderstorms 91 32.8 72 22.2 54 54 VRB 6 9 30.18 1022 10 16 0.00 0.00
1:12 pm 13:12 Mostly Cloudy with Thunderstorms 93 33.9 71 21.7 49 49 W 3 6 30.18 1022 10 16 0.00 0.00
1:44 pm 13:44 Mostly Cloudy with Thunderstorms 92 33.3 72 22.2 52 52 NW 25 41 30.21 1023 10 16 0.00 0.00
1:52 pm 13:52 Cloudy with Thunderstorms 86 30 67 19.4 53 53 NW 17 28 30.23 1024 8 13 0.00 0.00
2:41 pm 14:41 Cloudy 85 29.4 74 23.3 70 70 N 3 6 30.21 1023 10 16 0.04 1.02
2:52 pm 14:52 Mostly Cloudy 87 30.6 75 23.9 67 67 NNW 7 11 30.21 1023 10 16 0.04 1.02
3:52 pm 15:52 Mostly Cloudy 93 33.9 74 23.3 54 54 NW 12 19 30.19 1022 10 16 0.00 0.00
4:52 pm 16:52 Mostly Cloudy 92 33.3 68 20 46 46 N 14 22 30.17 1022 10 16 0.00 0.00
5:52 pm 17:52 Mostly Cloudy 89 31.7 69 20.6 52 52 NNW 16 26 30.19 1022 10 16 0.00 0.00
6:52 pm 18:52 Mostly Cloudy 85 29.4 65 18.3 51 51 NNW 15 24 30.20 1023 10 16 0.00 0.00
7:52 pm 19:52 Cloudy 81 27.2 67 19.4 62 62 NNW 12 19 30.20 1023 10 16 0.00 0.00
8:52 pm 20:52 Cloudy 79 26.1 68 20 69 69 WNW 5 7 30.19 1022 10 16 0.00 0.00
9:52 pm 21:52 Mostly Cloudy 78 25.6 69 20.6 74 74 Calm 30.19 1022 10 16 0.00 0.00
10:52 pm 22:52 Cloudy 78 25.6 69 20.6 74 74 VRB 5 7 30.21 1023 10 16 0.00 0.00
11:52 pm 23:52 Cloudy 76 24.4 70 21.1 82 82 Calm 30.20 1023 10 16 0.00 0.00

Powered by AerisWeather